This is the latest recevied weather packets stored in our database for station/object VA3BOO. If no packets are shown the sender has not sent any weather packets the latest 10 day(s).
| Time | Temp. | Humidity | Pressure | Rain* | Wind** | Luminosity | Snow |
|---|---|---|---|---|---|---|---|
| 1778026205 | 8.89° C | 90% | 1007.9 hPa | 1.02 mm | - | 0 W/m² | - |
| 1778025905 | 8.89° C | 90% | 1007.9 hPa | 1.27 mm | - | 0 W/m² | - |
| 1778025605 | 9.44° C | 89% | 1007.7 hPa | 1.27 mm | - | 1 W/m² | - |
| 1778025305 | 9.44° C | 89% | 1007.6 hPa | 1.02 mm | - | 1 W/m² | - |
| 1778025005 | 9.44° C | 89% | 1007.6 hPa | 1.02 mm | - | 2 W/m² | - |
| 1778024705 | 9.44° C | 88% | 1007.3 hPa | 1.02 mm | - | 2 W/m² | - |
| 1778024405 | 10° C | 87% | 1007.2 hPa | 1.02 mm | - | 2 W/m² | - |
| 1778024105 | 10° C | 87% | 1007.2 hPa | 0.76 mm | - | 3 W/m² | - |
| 1778023805 | 10° C | 85% | 1007.1 hPa | 0.76 mm | - | 4 W/m² | - |
| 1778023505 | 10.56° C | 84% | 1007.3 hPa | 0.51 mm | - | 4 W/m² | - |
| 1778023205 | 10.56° C | 81% | 1007.2 hPa | 0.51 mm | - | 6 W/m² | - |
| 1778022905 | 10.56° C | 79% | 1007.1 hPa | 0.25 mm | - | 6 W/m² | - |
| 1778022605 | 11.11° C | 78% | 1007 hPa | 0.25 mm | - | 6 W/m² | - |
| 1778022305 | 11.67° C | 74% | 1007.1 hPa | 0 mm | - | 7 W/m² | - |
| 1778022005 | 11.67° C | 70% | 1007 hPa | 0 mm | - | 8 W/m² | - |
| 1778021705 | 12.22° C | 67% | 1006.8 hPa | 0 mm | - | 7 W/m² | - |
| 1778021405 | 12.78° C | 65% | 1006.5 hPa | 0 mm | - | 11 W/m² | - |
| 1778021105 | 13.33° C | 61% | 1006.4 hPa | 0 mm | - | 19 W/m² | - |
| 1778020805 | 14.44° C | 56% | 1006.3 hPa | 0 mm | - | 16 W/m² | - |
| 1778020505 | 15° C | 54% | 1006.1 hPa | 0 mm | - | 12 W/m² | - |
| 1778020205 | 15° C | 51% | 1006.1 hPa | 0 mm | - | 12 W/m² | - |
| 1778019905 | 15° C | 52% | 1005.8 hPa | 0 mm | - | 14 W/m² | - |
| 1778019605 | 15.56° C | 54% | 1005.5 hPa | 0 mm | - | 13 W/m² | - |
| 1778019305 | 15.56° C | 55% | 1005.5 hPa | 0 mm | - | 14 W/m² | - |
| 1778019005 | 15.56° C | 53% | 1005.3 hPa | 0 mm | - | 12 W/m² | - |
* Rain latest hour (hover to see other rain measurements)
** Current wind speed in m/s (hover to see current wind gust speed)